sat.trackr.live / text

‹ back to catalog

TOM-2

NORAD 69914 · 2026-156AX

PAYLOAD ACTIVE UNKNOWN

§ Identity

Operator
Country
GER
Launch date
2026-07-07
Launch site
AFWTR
Launch vehicle
Mass (kg)
RCS (m²)

External: N2YO · Heavens-Above · Gunter

§ Orbital elements

Epoch: 2026-09-19T23:30:12.181824Z

Period
96.59 min
Inclination
97.7475°
Eccentricity
0.0001804
Mean motion
14.90852315 rev/d
Perigee alt
594.0 km
Apogee alt
596.5 km
Semi-major
6,973.4 km
B*
5.9990e-5
RAAN
162.0918°
Arg perigee
202.5366°
Mean anomaly
157.5773°
Rev number
1,112

§ Raw data

TOM-21 69914U 26156AX  26262.97930766  .00000536  00000+0  59990-4 0  99932 69914  97.7475 162.0918 0001804 202.5366 157.5773 14.90852315 11122

JSON: /api/v1/satellites/69914 · /tle

For live sub-satellite position, see the globe view (requires WebGL).

§ Visibility from observer

Set your observer location to see the next 7 days of passes ≥ 10°. The values pass through the URL so the page stays shareable.

No JS? Fill the form by hand. The geolocation button needs JavaScript.